Date,TemperatureHighF,TemperatureAvgF,TemperatureLowF,DewpointHighF,DewpointAvgF,DewpointLowF,HumidityHigh,HumidityAvg,HumidityLow,PressureMaxIn,PressureMinIn,WindSpeedMaxMPH,WindSpeedAvgMPH,GustSpeedMaxMPH,PrecipitationSumIn
2013-10-3,72,63,53,37,31,22,46,31,20,0.00,40.00,6,4,13,0.00
2013-10-4,75,65,51,33,29,26,38,27,19,0.00,40.00,6,4,13,0.00
2013-10-5,79,74,65,27,23,18,21,15,13,0.00,40.00,6,4,14,0.00
2013-10-6,83,74,59,27,25,22,26,16,12,0.00,40.00,6,4,12,0.00
2013-10-7,82,74,63,26,23,20,20,15,11,0.00,40.00,6,4,12,0.00
2013-10-8,76,66,57,29,26,20,33,22,15,0.00,40.00,6,4,15,0.00
2013-10-9,57,49,45,47,38,28,97,70,33,0.00,40.00,6,3,11,0.13
2013-10-10,66,54,44,45,42,39,94,65,44,0.00,40.00,4,3,10,0.01
2013-10-11,72,61,49,41,39,37,70,47,31,0.00,40.00,5,4,12,0.00
2013-10-12,72,62,51,40,35,-100,58,39,29,0.00,40.00,5,4,12,0.00
2013-10-13,70,61,52,40,38,36,55,42,31,0.00,40.00,6,4,15,0.00
2013-10-14,73,62,51,39,37,35,56,40,28,0.00,40.00,5,4,12,0.00
2013-10-15,74,66,53,38,36,33,53,33,26,0.00,40.00,6,4,14,0.00
2013-10-19,81,73,63,29,23,-100,26,16,13,0.00,40.00,5,4,12,0.00
2013-10-20,80,73,63,29,28,25,27,19,14,0.00,40.00,5,3,11,0.00
2013-10-21,82,77,69,32,31,30,25,19,16,0.00,40.00,5,4,11,0.00
2013-10-22,83,78,70,30,27,22,23,16,12,0.00,40.00,5,4,11,0.00
2013-10-23,81,74,64,37,30,23,36,21,13,0.00,40.00,5,3,10,0.00
2013-10-24,77,70,59,38,34,29,35,27,21,0.00,40.00,5,4,13,0.00
2013-10-25,75,70,61,41,39,37,48,33,26,0.00,40.00,4,3,11,0.00
2013-10-26,79,69,57,39,32,-100,46,27,23,0.00,40.00,4,3,10,0.00
2013-10-27,74,64,43,42,36,32,89,39,22,0.00,40.00,8,5,17,0.00
2013-10-28,44,41,38,44,38,-100,100,95,71,0.00,40.00,8,5,17,0.91
2013-10-29,58,47,40,41,38,34,86,71,51,0.00,40.00,4,3,12,0.05
2013-10-30,62,50,41,40,38,34,84,65,45,0.00,40.00,5,4,10,0.00
2013-10-31,67,60,45,42,39,36,73,46,36,0.00,40.00,5,4,11,0.00